This demonstration page uses our WeatherBlox Daily Observations layout. Learn more.

Left ArrowRight Arrow

41.55636, -103.73856

Hourly Observations for February 28, 2016

Temp ( °F °C ) Dew Point ( °F °C ) Humidity (%) Winds ( mph kmh ) Pressure ( in mb ) Visibility ( mi km ) Precip ( " mm )
12:53 am 00:53 Clear 45 7.2 28 -2.2 52 52 WNW 12 19 29.78 1008 10 16.0934 N/A
1:53 am 01:53 Clear 43 6.1 30 -1.1 60 60 WNW 10 17 29.84 1010 10 16.0934 N/A
2:53 am 02:53 Cloudy 43 6.1 29 -1.7 58 58 NW 9 15 29.86 1011 10 16.0934 N/A
3:53 am 03:53 Cloudy 45 7.2 30 -1.1 56 56 NW 12 19 29.88 1012 10 16.0934 N/A
4:53 am 04:53 Mostly Cloudy 42 5.6 30 -1.1 62 62 WNW 14 22 29.93 1014 10 16.0934 N/A
5:53 am 05:53 Cloudy 41 5 30 -1.1 65 65 NW 15 24 29.98 1015 10 16.0934 N/A
6:53 am 06:53 Mostly Cloudy 42 5.6 29 -1.7 60 60 NW 16 26 29.98 1015 10 16.0934 N/A
7:53 am 07:53 Sunny 43 6.1 29 -1.7 58 58 NW 23 37 30.01 1016 10 16.0934 N/A
8:53 am 08:53 Sunny 46 7.8 29 -1.7 51 51 NW 21 33 30.04 1017 10 16.0934 N/A
9:53 am 09:53 Sunny 49 9.4 26 -3.3 41 41 NW 20 31 30.04 1017 10 16.0934 N/A
10:53 am 10:53 Sunny 51 10.6 23 -5 33 33 NW 17 28 30.03 1017 10 16.0934 N/A
11:53 am 11:53 Sunny 55 12.8 23 -5 29 29 NW 18 30 30.01 1016 10 16.0934 N/A
12:53 pm 12:53 Sunny 56 13.3 23 -5 28 28 NW 17 28 29.98 1015 10 16.0934 N/A
1:53 pm 13:53 Sunny 58 14.4 24 -4.4 27 27 NW 14 22 29.95 1014 10 16.0934 N/A
2:53 pm 14:53 Sunny 59 15 23 -5 25 25 NW 13 20 29.94 1014 10 16.0934 N/A
3:53 pm 15:53 Sunny 60 15.6 24 -4.4 25 25 W 8 13 29.92 1013 10 16.0934 N/A
4:53 pm 16:53 Sunny 58 14.4 23 -5 26 26 N N/A 29.92 1013 10 16.0934 N/A
5:53 pm 17:53 Clear 52 11.1 24 -4.4 34 34 SSE 6 9 29.92 1013 10 16.0934 N/A
6:53 pm 18:53 Clear 47 8.3 21 -6.1 36 36 W 6 9 29.93 1013 10 16.0934 N/A
7:53 pm 19:53 Clear 48 8.9 18 -7.8 30 30 W 8 13 29.91 1013 10 16.0934 N/A
8:53 pm 20:53 Clear 42 5.6 19 -7.2 40 40 SSE 6 9 29.93 1014 10 16.0934 N/A
9:53 pm 21:53 Clear 39 3.9 19 -7.2 45 45 ENE 3 6 29.93 1014 10 16.0934 N/A
10:53 pm 22:53 Clear 53 11.7 10 -12.2 18 18 WSW 16 26 29.87 1011 10 16.0934 N/A
11:53 pm 23:53 Clear 48 8.9 10 -12.2 21 21 W 9 15 29.86 1011 10 16.0934 N/A

Powered by AerisWeather